Zurück zum Katalog

SMAP

AktivWissenschaftSSO
NORAD 40376·PAYLOAD·🇺🇸 United States

Gestartet Jan 31, 2015 von Vandenberg Space Force Base

Loading…

Nächste Überflüge (nächste 24 Stunden)

TLE

AktuellSource: Space-Track

Epoche: Sep 14, 2026, 14:01 UTC

1 40376U 15003A   26257.58432821  .00000271  00000-0  61456-4 0  9990
2 40376  98.1315 263.4276 0001446  91.1743 268.9625 14.63370458620691

Verfolge SMAP in Echtzeit mit AllMySat

Download on the App Store